User: anonymous   Login
Location: Granada
(37.1830°N, 3.6000°W)
Time: 04:22:37
(UTC+01:00)
Language:

Iridium 70 - Orbit

View from above orbital plane
View from above orbital plane
View from above satellite
View from above satellite

Ground track
Ground track

The orbit data is extracted from the following two-line orbital elements,

1 25342U 98032A   14326.33904182  .00000318  00000-0  10659-3 0   542
2 25342 086.3980 256.1792 0002108 104.0325 050.2470 14.34214009864677
Epoch (UTC): 22 November 2014 08:08:13
Eccentricity: 0.0002108
inclination: 86.3980°
perigee height: 776 km
apogee height: 779 km
right ascension of ascending node: 256.1792°
argument of perigee: 104.0325°
revolutions per day: 14.34214009
mean anomaly at epoch: 50.2470°
orbit number at epoch: 86467

The dashed part of the orbit path shows where the satellite is in the earth's shadow,  

DLR